Voltar ao catálogo

FREGAT DEB

LostUNKNOWN
NORAD 46636·DEBRIS·🇷🇺 Russia

Lançado Jul 18, 2011 de Baikonur Cosmodrome

Loading…

Próximas Passagens (próximas 24 horas)

TLE

ObsoletoSource: Space-Track

Época: Mar 30, 2021, 12:02 UTC

1 46636U 11037NC  21089.50155282 -.00034330  00000-0 -44537+0 0  9992
2 46636  51.5379 208.5190 1778875  90.7842 289.6021  9.91559165 21129

Acompanhe FREGAT DEB em tempo real com AllMySat

Download on the App Store